Location: *
(46.1833°N, 22.7667°E)
Time: 13:26:16
(UTC+00:00)

Meteor 2-15 Rocket - Pass Details

Date: 17 September 2019
Orbit: 939 x 956 km, 82.5° (Epoch: 22 October)

Event Time Altitude Azimuth Distance (km) Brightness Sun altitude
Rises 17:24:08 0° 175° (S) 3,613 7.3 -8.8°
Reaches altitude 10° 17:26:38 10° 172° (S) 2,674 6.6 -9.3°
Maximum altitude 17:32:39 61° 94° (E) 1,079 4.5 -10.3°
Drops below altitude 10° 17:38:42 10° 16° (NNE) 2,697 6.8 -11.3°
Sets 17:41:14 0° 13° (NNE) 3,647 7.5 -11.7°
